FW6148 Weather Reports


Display with metric or nautical units.
time (UTC)temp
F
wind
direction
speed
MPH
gust
MPH
rain 1hr
in
rain 24hr
in
rain mn
in
humidity
%
barometer
mb
20260509204028 47 95 4.0 8.0 0.21 0.22 0.22 85 1017.9
20260509203524 47 59 4.0 8.0 0.18 0.19 0.19 85 1017.9
20260509203046 48 71 1.0 4.0 0.15 0.16 0.16 85 1017.9
20260509202525 47 0 0.0 1.0 0.15 0.16 0.16 85 1017.5
20260509202025 47 0 0.0 4.0 0.15 0.16 0.16 83 1017.5
20260509201538 47 0 0.0 6.0 0.15 0.16 0.16 84 1017.4
20260509201024 46 167 1.0 6.0 0.15 0.16 0.16 81 1017.4
20260509200526 46 72 0.0 7.0 0.14 0.15 0.15 81 1017.3
20260509200039 47 46 3.0 8.0 0.14 0.15 0.15 78 1017.2
20260509195526 48 146 3.0 8.0 0.14 0.15 0.15 76 1017.0
20260509195025 50 107 4.0 17.0 0.08 0.09 0.09 74 1017.0
20260509194541 54 84 11.0 17.0 0.02 0.03 0.03 67 1016.9
20260509194024 57 69 4.0 11.0 0.00 0.01 0.01 67 1016.5
20260509193525 58 52 3.0 10.0 0.00 0.01 0.01 67 1016.3
20260509193038 57 327 3.0 13.0 0.00 0.01 0.01 72 1016.2
20260509192527 56 299 5.0 13.0 0.00 0.01 0.01 69 1016.2
20260509192024 56 53 6.0 12.0 0.00 0.01 0.01 70 1016.2
20260509191544 55 38 5.0 12.0 0.00 0.01 0.01 71 1016.2
20260509191030 55 52 6.0 13.0 0.00 0.01 0.01 72 1016.3
20260509190527 55 34 6.0 13.0 0.00 0.01 0.01 72 1016.3
20260509190046 55 35 5.0 13.0 0.00 0.01 0.01 74 1016.4
20260509185527 55 101 4.0 13.0 0.00 0.01 0.01 73 1016.5
20260509185027 55 112 5.0 13.0 0.00 0.01 0.01 74 1016.4
20260509184538 55 103 4.0 13.0 0.00 0.01 0.01 73 1016.6
20260509184027 55 103 7.0 13.0 0.00 0.01 0.01 73 1016.7
20260509183531 55 42 6.0 12.0 0.00 0.01 0.01 74 1016.7
20260509183039 55 72 6.0 13.0 0.00 0.01 0.01 75 1016.9
20260509182526 54 92 6.0 13.0 0.00 0.01 0.01 80 1017.0
20260509182026 54 59 7.0 14.0 0.00 0.01 0.01 80 1017.0
20260509181538 52 57 6.0 14.0 0.00 0.01 0.01 82 1017.0
20260509181029 50 57 9.0 14.0 0.00 0.01 0.01 82 1017.0
20260509180528 50 65 7.0 12.0 0.00 0.01 0.01 82 1016.9
20260509180037 50 53 5.0 15.0 0.00 0.01 0.01 83 1016.9
20260509175527 50 46 9.0 17.0 0.00 0.01 0.01 81 1016.9
20260509175027 51 58 7.0 18.0 0.00 0.01 0.01 81 1016.8
20260509174542 51 42 12.0 18.0 0.00 0.01 0.01 79 1016.7
20260509174030 53 57 5.0 12.0 0.00 0.01 0.01 76 1016.4
20260509173527 52 93 5.0 13.0 0.00 0.01 0.01 80 1016.4
20260509173041 52 90 5.0 13.0 0.00 0.01 0.01 80 1016.4
20260509172530 52 35 7.0 13.0 0.00 0.01 0.01 78 1016.7
20260509172027 52 66 7.0 12.0 0.00 0.01 0.01 77 1016.7
20260509171539 52 78 4.0 12.0 0.00 0.01 0.01 77 1016.6
20260509171026 52 62 5.0 11.0 0.00 0.01 0.01 78 1016.5
20260509170526 52 64 5.0 11.0 0.00 0.01 0.01 81 1016.4
20260509170038 51 80 5.0 13.0 0.00 0.01 0.01 80 1016.4
20260509165527 51 52 6.0 13.0 0.00 0.01 0.01 81 1016.4
20260509165026 51 360 6.0 13.0 0.00 0.01 0.01 81 1016.4
20260509164545 50 66 7.0 15.0 0.01 0.01 0.01 81 1016.4
20260509164027 50 71 6.0 15.0 0.01 0.01 0.01 81 1016.3
20260509163527 50 74 9.0 15.0 0.01 0.01 0.01 81 1016.3
20260509163054 51 63 8.0 13.0 0.01 0.01 0.01 82 1016.2
20260509162527 50 78 5.0 12.0 0.01 0.01 0.01 83 1016.1
20260509162027 50 76 5.0 12.0 0.01 0.01 0.01 84 1016.0
20260509161540 50 52 6.0 12.0 0.01 0.01 0.01 84 1016.1
20260509161031 49 13 6.0 14.0 0.01 0.01 0.01 85 1016.1
20260509160528 49 57 8.0 14.0 0.01 0.01 0.01 84 1016.1
20260509160039 49 63 9.0 14.0 0.01 0.01 0.01 84 1016.1
20260509155527 49 49 9.0 14.0 0.01 0.01 0.01 84 1016.0
20260509155031 49 51 9.0 15.0 0.01 0.01 0.01 84 1015.9
20260509154538 49 65 9.0 15.0 0.00 0.00 0.00 83 1015.8
20260509154026 49 74 9.0 15.0 0.00 0.00 0.00 82 1015.7
20260509153528 49 65 7.0 16.0 0.00 0.00 0.00 80 1015.6
20260509153051 50 88 6.0 17.0 0.00 0.00 0.00 78 1015.5
20260509152527 51 360 9.0 17.0 0.00 0.00 0.00 75 1015.4
20260509152027 52 360 8.0 15.0 0.00 0.00 0.00 72 1015.4
20260509151545 52 71 7.0 18.0 0.00 0.00 0.00 71 1015.2
20260509151027 53 360 8.0 18.0 0.00 0.00 0.00 70 1015.1
20260509150526 53 34 9.0 18.0 0.00 0.00 0.00 68 1015.0
20260509150054 53 118 7.0 18.0 0.00 0.00 0.00 70 1015.0
20260509145527 53 53 10.0 18.0 0.00 0.00 0.00 70 1014.9
20260509145027 54 55 10.0 15.0 0.00 0.00 0.00 68 1014.7
20260509144539 54 47 7.0 13.0 0.00 0.00 0.00 67 1014.7
20260509144026 54 41 7.0 12.0 0.00 0.00 0.00 66 1014.6
20260509143527 54 73 7.0 12.0 0.00 0.00 0.00 66 1014.4
20260509143040 54 51 6.0 12.0 0.00 0.00 0.00 67 1014.4
20260509142527 54 46 5.0 9.0 0.00 0.00 0.00 67 1014.2
20260509142024 54 48 5.0 11.0 0.00 0.00 0.00 67 1014.3
20260509141538 54 42 4.0 11.0 0.00 0.00 0.00 67 1014.1
20260509141024 53 46 4.0 11.0 0.00 0.00 0.00 68 1014.0
20260509140527 53 38 4.0 10.0 0.00 0.00 0.00 68 1013.8
20260509140041 53 40 3.0 10.0 0.00 0.00 0.00 69 1013.7
20260509135530 53 30 2.0 11.0 0.00 0.00 0.00 67 1013.7
20260509135026 53 22 3.0 15.0 0.00 0.00 0.00 67 1013.7
20260509134548 53 29 8.0 15.0 0.00 0.00 0.00 66 1013.8
20260509134026 53 54 9.0 15.0 0.00 0.00 0.00 66 1013.7
20260509133524 53 40 5.0 10.0 0.00 0.00 0.00 68 1013.8
20260509133050 53 41 4.0 12.0 0.00 0.00 0.00 68 1013.6
20260509132527 53 9 5.0 12.0 0.00 0.00 0.00 67 1013.6
20260509132026 53 69 6.0 12.0 0.00 0.00 0.00 68 1013.7
20260509131541 53 42 6.0 11.0 0.00 0.00 0.00 67 1013.6
20260509131026 53 32 7.0 14.0 0.00 0.00 0.00 67 1013.5
20260509130526 53 55 7.0 14.0 0.00 0.00 0.00 67 1013.4
20260509130038 53 51 7.0 14.0 0.00 0.00 0.00 68 1013.5
20260509125525 53 55 7.0 13.0 0.00 0.00 0.00 67 1013.3
20260509125023 53 36 8.0 16.0 0.00 0.00 0.00 67 1013.3
20260509124539 53 59 8.0 16.0 0.00 0.00 0.00 66 1013.2
20260509124025 53 39 8.0 16.0 0.00 0.00 0.00 66 1013.0
20260509123527 53 71 8.0 16.0 0.00 0.00 0.00 65 1012.9
20260509123046 53 67 9.0 16.0 0.00 0.00 0.00 65 1012.9
20260509122526 53 49 8.0 15.0 0.00 0.00 0.00 66 1012.9
20260509122028 53 61 10.0 15.0 0.00 0.00 0.00 65 1012.8
20260509121541 53 360 10.0 16.0 0.00 0.00 0.00 66 1012.8
20260509121027 53 360 9.0 16.0 0.00 0.00 0.00 66 1012.7
20260509120523 53 65 7.0 12.0 0.00 0.00 0.00 66 1012.6
20260509120038 53 78 6.0 11.0 0.00 0.00 0.00 67 1012.4
20260509115526 53 58 6.0 10.0 0.00 0.00 0.00 67 1012.4
20260509115026 52 360 5.0 10.0 0.00 0.00 0.00 68 1012.3
20260509114547 52 360 5.0 12.0 0.00 0.00 0.00 69 1012.4
20260509114025 52 360 6.0 12.0 0.00 0.00 0.00 68 1012.3
20260509113523 52 360 6.0 12.0 0.00 0.00 0.00 69 1012.3
20260509113040 53 360 7.0 16.0 0.00 0.00 0.00 68 1012.3
20260509112527 53 360 8.0 18.0 0.00 0.00 0.00 67 1012.2
20260509112027 54 360 11.0 18.0 0.00 0.00 0.00 64 1012.2
20260509111537 53 360 11.0 17.0 0.00 0.00 0.00 64 1012.1
20260509111027 53 360 12.0 18.0 0.00 0.00 0.00 65 1012.0
20260509110526 53 360 11.0 18.0 0.00 0.00 0.00 65 1012.0
20260509110040 53 360 9.0 15.0 0.00 0.00 0.00 65 1012.0
20260509105531 53 360 9.0 15.0 0.00 0.00 0.00 66 1012.0
20260509105027 53 360 9.0 14.0 0.00 0.00 0.00 65 1012.0
20260509104538 54 360 9.0 15.0 0.00 0.00 0.00 65 1011.9
20260509104026 54 360 10.0 17.0 0.00 0.00 0.00 64 1011.9
20260509103524 54 360 10.0 17.0 0.00 0.00 0.00 64 1011.9
20260509103038 54 360 9.0 16.0 0.00 0.00 0.00 63 1012.0
20260509102527 54 360 9.0 17.0 0.00 0.00 0.00 62 1011.9
20260509102025 55 360 10.0 20.0 0.00 0.00 0.00 62 1011.9
20260509101538 55 360 13.0 20.0 0.00 0.00 0.00 60 1011.8
20260509101026 55 360 13.0 20.0 0.00 0.00 0.00 60 1011.7
20260509100527 56 360 13.0 20.0 0.00 0.00 0.00 59 1011.6
20260509100039 56 360 11.0 21.0 0.00 0.00 0.00 58 1011.5
20260509095527 56 360 12.0 21.0 0.00 0.00 0.00 58 1011.4
20260509095027 56 360 13.0 21.0 0.00 0.00 0.00 57 1011.4
20260509094540 56 360 10.0 18.0 0.00 0.00 0.00 56 1011.2
20260509094027 56 360 7.0 15.0 0.00 0.00 0.00 55 1011.3
20260509093525 57 360 6.0 12.0 0.00 0.00 0.00 55 1011.1
20260509093039 56 360 5.0 11.0 0.00 0.00 0.00 55 1011.0
20260509092526 56 360 3.0 8.0 0.00 0.00 0.00 56 1010.7
20260509092023 56 360 3.0 9.0 0.00 0.00 0.00 55 1010.6
20260509091538 57 360 4.0 9.0 0.00 0.00 0.00 55 1010.5
20260509091023 57 360 3.0 9.0 0.00 0.00 0.00 55 1010.4
20260509090527 57 360 2.0 9.0 0.00 0.00 0.00 56 1010.3
20260509090038 57 360 3.0 9.0 0.00 0.00 0.00 55 1010.4
20260509085523 57 360 5.0 12.0 0.00 0.00 0.00 56 1010.4
20260509085026 58 360 5.0 12.0 0.00 0.00 0.00 56 1010.3
20260509084541 58 360 7.0 11.0 0.00 0.00 0.00 54 1010.1
20260509084027 58 360 6.0 11.0 0.00 0.00 0.00 56 1009.9
20260509083531 57 360 7.0 10.0 0.00 0.00 0.00 56 1009.8
20260509083039 56 360 5.0 10.0 0.00 0.00 0.00 58 1009.8
20260509082529 56 360 3.0 9.0 0.00 0.00 0.00 60 1009.7
20260509082028 55 360 2.0 6.0 0.00 0.00 0.00 61 1009.7
20260509081538 54 360 3.0 6.0 0.00 0.00 0.00 62 1009.7
20260509081029 53 360 2.0 8.0 0.00 0.00 0.00 66 1009.7
20260509080528 51 360 0.0 8.0 0.00 0.00 0.00 70 1009.7
20260509080055 51 0 0.0 0.0 0.00 0.00 0.00 73 1009.7
20260509075532 51 0 0.0 0.0 0.00 0.00 0.00 73 1009.7
20260509075030 51 0 0.0 0.0 0.00 0.00 0.00 74 1009.5
20260509074538 51 0 0.0 0.0 0.00 0.00 0.00 74 1009.6
20260509074028 51 0 0.0 0.0 0.00 0.00 0.00 73 1009.7
20260509073528 51 0 0.0 0.0 0.00 0.00 0.00 73 1009.7
20260509073135 52 0 0.0 2.0 0.00 0.00 0.00 73 1009.7
20260509072528 51 0 0.0 4.0 0.00 0.00 0.00 73 1009.7
20260509072027 51 0 2.0 4.0 0.00 0.00 0.00 73 1009.6
20260509071539 51 0 0.0 0.0 0.00 0.00 0.00 75 1009.6
20260509071028 51 0 0.0 0.0 0.00 0.00 0.00 75 1009.5
20260509070528 51 0 0.0 0.0 0.00 0.00 0.00 74 1009.6
20260509070045 51 0 0.0 0.0 0.00 0.00 0.00 71 1009.6
20260509065532 51 0 0.0 0.0 0.00 0.00 0.00 74 1009.5
20260509065028 51 0 0.0 0.0 0.00 0.00 0.00 72 1009.6
20260509064540 51 0 0.0 0.0 0.00 0.00 0.00 74 1009.6
20260509064028 51 0 0.0 0.0 0.00 0.00 0.00 74 1009.5
20260509063531 51 0 0.0 0.0 0.00 0.00 0.00 72 1009.5
20260509063038 51 0 0.0 0.0 0.00 0.00 0.00 73 1009.4
20260509062527 51 0 0.0 0.0 0.00 0.00 0.00 73 1009.4
20260509062031 51 0 0.0 0.0 0.00 0.00 0.00 74 1009.4
20260509061550 51 0 0.0 0.0 0.00 0.00 0.00 74 1009.4
20260509061028 51 0 0.0 0.0 0.00 0.00 0.00 74 1009.3
20260509060528 51 0 0.0 0.0 0.00 0.00 0.00 74 1009.3
20260509060040 51 0 0.0 0.0 0.00 0.00 0.00 74 1009.2
20260509055528 51 0 0.0 0.0 0.00 0.00 0.00 74 1009.2
20260509055031 51 0 0.0 0.0 0.00 0.00 0.00 74 1009.1
20260509054540 51 0 0.0 0.0 0.00 0.00 0.00 74 1009.1
20260509054027 51 0 0.0 0.0 0.00 0.00 0.00 74 1009.2
20260509053528 51 0 0.0 0.0 0.00 0.00 0.00 73 1009.0
20260509053038 51 0 0.0 0.0 0.00 0.00 0.00 73 1009.0
20260509052528 52 0 0.0 0.0 0.00 0.00 0.00 73 1009.0
20260509052026 52 0 0.0 0.0 0.00 0.00 0.00 72 1009.0
20260509051540 52 0 0.0 0.0 0.00 0.00 0.00 71 1009.0
20260509051023 53 0 0.0 1.0 0.00 0.00 0.00 70 1008.9
20260509050524 53 0 0.0 1.0 0.00 0.00 0.00 68 1008.9
20260509050045 53 0 0.0 3.0 0.00 0.00 0.00 67 1009.0
20260509045523 54 0 0.0 3.0 0.00 0.00 0.00 68 1009.0
20260509045030 54 360 0.0 3.0 0.00 0.00 0.00 66 1009.0
20260509044538 54 0 0.0 4.0 0.00 0.00 0.00 66 1009.0
20260509044024 53 0 0.0 5.0 0.00 0.00 0.00 65 1009.0
20260509043529 52 360 1.0 5.0 0.00 0.00 0.00 68 1009.1
20260509043051 52 360 2.0 5.0 0.00 0.00 0.00 69 1009.0
20260509042526 51 360 2.0 4.0 0.00 0.00 0.00 72 1009.2
20260509042026 50 0 0.0 2.0 0.00 0.00 0.00 74 1009.2
20260509041539 50 360 0.0 3.0 0.00 0.00 0.00 74 1009.3
20260509041026 49 360 0.0 3.0 0.00 0.00 0.00 74 1009.3
20260509040526 49 360 1.0 4.0 0.00 0.00 0.00 75 1009.2
20260509040057 49 0 1.0 5.0 0.00 0.00 0.00 76 1009.2
20260509035526 48 360 2.0 5.0 0.00 0.00 0.00 76 1009.4
20260509035023 48 0 1.0 4.0 0.00 0.00 0.00 77 1009.1
20260509034539 47 0 0.0 0.0 0.00 0.00 0.00 77 1009.2
20260509034023 47 0 0.0 0.0 0.00 0.00 0.00 78 1009.4
20260509033527 47 0 0.0 0.0 0.00 0.00 0.00 77 1009.3
20260509033039 47 0 0.0 0.0 0.00 0.00 0.00 76 1009.2
20260509032525 48 0 0.0 0.0 0.00 0.00 0.00 76 1009.2
20260509032027 48 0 0.0 0.0 0.00 0.00 0.00 75 1009.3
20260509031540 49 0 0.0 0.0 0.00 0.00 0.00 74 1009.3
20260509031024 50 0 0.0 0.0 0.00 0.00 0.00 72 1009.4
20260509030528 50 0 0.0 0.0 0.00 0.00 0.00 72 1009.3
20260509030041 51 0 0.0 0.0 0.00 0.00 0.00 72 1009.3
20260509025526 52 0 0.0 0.0 0.00 0.00 0.00 70 1009.1
20260509025026 52 0 0.0 0.0 0.00 0.00 0.00 70 1009.1
20260509024545 53 0 0.0 0.0 0.00 0.00 0.00 68 1008.9
20260509024027 54 0 0.0 0.0 0.00 0.00 0.00 67 1008.9
20260509023526 55 0 0.0 0.0 0.00 0.00 0.00 66 1009.0
20260509023041 55 0 0.0 0.0 0.00 0.00 0.00 66 1008.9
20260509022527 56 0 0.0 0.0 0.00 0.00 0.00 65 1008.9
20260509022027 56 0 0.0 0.0 0.00 0.00 0.00 64 1008.9
20260509021538 57 0 0.0 0.0 0.00 0.00 0.00 63 1008.9
20260509021027 58 0 0.0 0.0 0.00 0.00 0.00 62 1008.8
20260509020527 59 0 0.0 0.0 0.00 0.00 0.00 62 1008.8
20260509020038 61 0 0.0 0.0 0.00 0.00 0.00 58 1008.8
20260509015531 62 0 0.0 0.0 0.00 0.00 0.00 55 1008.7
20260509015028 63 0 0.0 0.0 0.00 0.00 0.00 53 1008.9
20260509014540 64 0 0.0 0.0 0.00 0.00 0.00 51 1008.8
20260509014028 65 0 0.0 0.0 0.00 0.00 0.00 50 1008.7
20260509013531 66 0 0.0 0.0 0.00 0.00 0.00 48 1008.8
20260509013047 66 0 0.0 1.0 0.00 0.00 0.00 45 1008.7
20260509012526 67 0 0.0 3.0 0.00 0.00 0.00 46 1008.7
20260509012028 68 0 0.0 4.0 0.00 0.00 0.00 43 1008.7
20260509011543 68 55 1.0 4.0 0.00 0.00 0.00 43 1008.7
20260509011028 68 55 1.0 3.0 0.00 0.00 0.00 43 1008.8
20260509010528 68 51 0.0 5.0 0.00 0.00 0.00 45 1008.8
20260509010043 68 51 2.0 5.0 0.00 0.00 0.00 45 1008.8
20260509005527 69 360 1.0 5.0 0.00 0.00 0.00 42 1008.9
20260509005030 69 0 0.0 1.0 0.00 0.00 0.00 40 1008.9
20260509004601 69 0 0.0 3.0 0.00 0.00 0.00 39 1008.9
20260509004033 69 51 1.0 3.0 0.00 0.00 0.00 41 1008.9
20260509003527 69 0 0.0 3.0 0.00 0.00 0.00 41 1009.0
20260509003044 68 0 1.0 5.0 0.00 0.00 0.00 39 1009.0
20260509002529 68 0 2.0 8.0 0.00 0.00 0.00 40 1009.0
20260509002028 68 17 1.0 9.0 0.00 0.00 0.00 44 1009.1
20260509001540 68 46 4.0 9.0 0.00 0.00 0.00 41 1009.2
20260509001027 68 72 2.0 6.0 0.00 0.00 0.00 44 1009.1
20260509000527 68 90 2.0 10.0 0.00 0.00 0.00 42 1009.2
20260509000037 68 85 2.0 10.0 0.00 0.00 0.00 45 1009.3
20260508235530 68 47 6.0 10.0 0.00 0.00 0.00 42 1009.4
20260508235028 69 329 3.0 5.0 0.00 0.00 0.00 40 1009.2
20260508234546 68 350 1.0 7.0 0.00 0.00 0.00 41 1009.2
20260508234028 68 39 1.0 7.0 0.00 0.00 0.00 40 1009.3
20260508233528 68 51 2.0 7.0 0.00 0.00 0.00 41 1009.3
20260508233040 68 38 2.0 7.0 0.00 0.00 0.00 39 1009.4
20260508232527 68 47 3.0 7.0 0.00 0.00 0.00 39 1009.5
20260508232030 68 46 2.0 9.0 0.00 0.00 0.00 40 1009.5
20260508231539 68 105 3.0 9.0 0.00 0.00 0.00 41 1009.5
20260508231029 69 82 1.0 8.0 0.00 0.00 0.00 43 1009.7
20260508230528 69 101 3.0 8.0 0.00 0.00 0.00 40 1009.8
20260508230052 69 43 2.0 6.0 0.00 0.00 0.00 40 1009.9
20260508225540 69 142 1.0 4.0 0.00 0.00 0.00 40 1009.9
20260508225028 68 150 0.0 5.0 0.00 0.00 0.00 40 1010.1
20260508224537 68 329 3.0 6.0 0.00 0.00 0.00 41 1010.2
20260508224027 67 94 2.0 11.0 0.00 0.00 0.00 44 1010.1
20260508223528 67 96 4.0 11.0 0.00 0.00 0.00 41 1010.4
20260508223038 67 65 2.0 9.0 0.00 0.00 0.00 42 1010.3
20260508222527 67 44 4.0 10.0 0.00 0.00 0.00 40 1010.3
20260508222026 67 88 4.0 10.0 0.00 0.00 0.00 43 1010.4
20260508221542 67 94 3.0 7.0 0.00 0.00 0.00 45 1010.4
20260508221028 67 86 3.0 8.0 0.00 0.00 0.00 43 1010.5
20260508220530 67 75 3.0 8.0 0.00 0.00 0.00 44 1010.6
20260508220046 67 343 3.0 7.0 0.00 0.00 0.00 40 1010.6
20260508215526 67 57 2.0 8.0 0.00 0.00 0.00 44 1010.7
20260508215028 67 55 5.0 10.0 0.00 0.00 0.00 43 1010.6
20260508214541 67 81 4.0 10.0 0.00 0.00 0.00 43 1010.6
20260508214030 67 66 5.0 10.0 0.00 0.00 0.00 41 1010.8
20260508213527 68 286 2.0 6.0 0.00 0.00 0.00 41 1010.7
20260508213038 68 352 2.0 9.0 0.00 0.00 0.00 40 1010.9
20260508212528 67 107 1.0 9.0 0.00 0.00 0.00 41 1010.9
20260508212028 67 111 4.0 8.0 0.00 0.00 0.00 42 1010.9
20260508211544 66 119 2.0 8.0 0.00 0.00 0.00 38 1011.1
20260508211028 66 97 3.0 10.0 0.00 0.00 0.00 43 1011.2
20260508210525 66 41 4.0 10.0 0.00 0.00 0.00 42 1011.2
20260508210053 66 57 2.0 9.0 0.00 0.00 0.00 41 1011.1
20260508205527 67 92 4.0 9.0 0.00 0.00 0.00 39 1011.1
20260508205029 67 28 3.0 9.0 0.00 0.00 0.00 37 1011.2
20260508204540 67 0 2.0 7.0 0.00 0.00 0.00 39 1011.1